Tracking 35280 objects as of 7-Sep-2026
HD Live streaming from Space Station
objects crossing your sky now

GUARDIAN


GUARDIAN is no longer on orbit


NORAD ID: 52775
Int'l Code: 2022-057AV
Launch date: May 25, 2022
Source: Spain (SPN)
Launch site: AIR FORCE EASTERN TEST RANGE (AFETR)
Decay date: 2025-10-19
Your satellite tracking list
Your tracking list is empty




NASA's NSSDC Master Catalog

Two Line Element Set (TLE):
1 52775U 22057AV  25288.66296959  .02034794  25365-5  11531-2 0  9997
2 52775  97.5881  84.8519 0006745 281.5808  78.4722 16.19138170189594
Source of the keplerian elements: AFSPC